Weather History for Sparta, WI

Change the Weather History Date:

Wednesday, March 20, 2013

  Actual Average Record
Temperature  
Mean Temperature 12 °F -  
Max Temperature 23 °F 44 °F 77 °F (2012)
Min Temperature 0 °F 24 °F -21 °F (1965)
Degree Days  
Heating Degree Days 54    
Moisture  
Dew Point 0 °F    
Average Humidity 58    
Maximum Humidity 85    
Minimum Humidity 42    
Precipitation  
Precipitation 0.00 in - - ()
Sea Level Pressure  
Sea Level Pressure 30.09 in    
Wind  
Wind Speed 8 mph (WNW)    
Max Wind Speed 17 mph    
Max Gust Speed 25 mph    
Visibility 10 miles    
Events      
Averages and records for this station are not official NWS values.
T = Trace of Precipitation, MM = Missing Value Source: NWS Daily Summary

Daily Weather History Graph

Daily Weather History Graph

Search for Another Location

Airport:

Trip Planner

Search our weather history database for the weather conditions in past years. The results will help you decide how hot, cold, wet, or windy it might be!

Date:

Astronomy

Mar. 20, 2013 Rise Set
Actual Time 7:05 AM CDT 7:15 PM CDT
Civil Twilight 6:36 AM CDT 7:44 PM CDT
Nautical Twilight 6:03 AM CDT 8:18 PM CDT
Astronomical Twilight 5:28 AM CDT 8:52 PM CDT
Moon 12:40 PM CDT (3/20) 2:56 AM CDT (3/20)
Length of Visible Light 13h 07m
Length of Day
12h 10m
First Quarter, 59% of the Moon is Illuminated
Mar 20
First Quarter
Mar 27
Full
Apr 2
Last Quarter
Apr 10
New
Apr 18
First Quarter

Hourly Weather History & Observations

Time (CDT) Temp. Windchill Dew Point Humidity Pressure Visibility Wind Dir Wind Speed Gust Speed Precip Events Conditions
12:15 AM 14.0 °F 5.1 °F 3.2 °F 62% 30.09 in 10.0 mi West 5.8 mph - N/A   Clear
12:35 AM 12.2 °F 2.9 °F 1.4 °F 62% 30.09 in 10.0 mi West 5.8 mph - N/A   Clear
12:55 AM 12.2 °F 1.7 °F 1.4 °F 62% 30.09 in 10.0 mi West 6.9 mph - N/A   Clear
1:15 AM 12.2 °F 2.9 °F 1.4 °F 62% 30.09 in 10.0 mi West 5.8 mph - N/A   Clear
1:35 AM 12.2 °F 1.7 °F 1.4 °F 62% 30.10 in 10.0 mi West 6.9 mph - N/A   Clear
1:55 AM 12.2 °F 1.7 °F 1.4 °F 62% 30.10 in 10.0 mi West 6.9 mph - N/A   Clear
2:15 AM 10.4 °F -1.5 °F 1.4 °F 67% 30.10 in 10.0 mi West 8.1 mph - N/A   Clear
2:35 AM 10.4 °F -3.3 °F -0.4 °F 62% 30.10 in 10.0 mi West 10.4 mph 16.1 mph N/A   Clear
2:55 AM 10.4 °F -0.4 °F -2.2 °F 57% 30.10 in 10.0 mi West 6.9 mph - N/A   Clear
3:15 AM 10.4 °F -0.4 °F -4.0 °F 52% 30.10 in 10.0 mi WNW 6.9 mph - N/A   Clear
3:35 AM 10.4 °F -0.4 °F -4.0 °F 52% 30.10 in 10.0 mi West 6.9 mph - N/A   Clear
3:55 AM 10.4 °F -3.3 °F -4.0 °F 52% 30.10 in 10.0 mi West 10.4 mph - N/A   Clear
4:15 AM 10.4 °F -1.5 °F -4.0 °F 52% 30.11 in 10.0 mi West 8.1 mph 17.3 mph N/A   Clear
4:35 AM 8.6 °F -5.5 °F -4.0 °F 57% 30.10 in 10.0 mi West 10.4 mph - N/A   Clear
4:55 AM 8.6 °F -3.7 °F -4.0 °F 57% 30.10 in 10.0 mi West 8.1 mph - N/A   Clear
5:15 AM 8.6 °F -4.7 °F -4.0 °F 57% 30.11 in 10.0 mi West 9.2 mph - N/A   Clear
5:35 AM 8.6 °F -2.6 °F -4.0 °F 57% 30.11 in 10.0 mi West 6.9 mph - N/A   Clear
5:55 AM 8.6 °F -2.6 °F -4.0 °F 57% 30.11 in 10.0 mi West 6.9 mph - N/A   Clear
6:15 AM 8.6 °F -4.7 °F -4.0 °F 57% 30.11 in 10.0 mi West 9.2 mph - N/A   Clear
6:35 AM 8.6 °F -4.7 °F -4.0 °F 57% 30.12 in 10.0 mi West 9.2 mph - N/A   Clear
6:55 AM 6.8 °F -6.9 °F -4.0 °F 61% 30.12 in 10.0 mi West 9.2 mph - N/A   Clear
7:15 AM 6.8 °F -4.8 °F -4.0 °F 61% 30.12 in 10.0 mi West 6.9 mph - N/A   Clear
7:35 AM 6.8 °F -3.5 °F -4.0 °F 61% 30.12 in 10.0 mi West 5.8 mph - N/A   Clear
7:55 AM 6.8 °F -4.8 °F -4.0 °F 61% 30.12 in 10.0 mi West 6.9 mph - N/A   Clear
8:15 AM 8.6 °F -4.7 °F -4.0 °F 57% 30.12 in 10.0 mi West 9.2 mph - N/A   Clear
8:35 AM 8.6 °F -5.5 °F -2.2 °F 62% 30.12 in 10.0 mi West 10.4 mph - N/A   Clear
8:55 AM 10.4 °F -2.4 °F -2.2 °F 57% 30.12 in 10.0 mi West 9.2 mph - N/A   Clear
9:15 AM 10.4 °F -3.3 °F -0.4 °F 62% 30.12 in 10.0 mi WNW 10.4 mph 17.3 mph N/A   Clear
9:35 AM 12.2 °F -2.5 °F -0.4 °F 57% 30.11 in 10.0 mi WNW 12.7 mph 17.3 mph N/A   Clear
9:55 AM 12.2 °F -3.7 °F -0.4 °F 57% 30.11 in 10.0 mi West 15.0 mph 19.6 mph N/A   Clear
10:15 AM 12.2 °F -1.8 °F -0.4 °F 57% 30.10 in 10.0 mi West 11.5 mph 18.4 mph N/A   Clear
10:35 AM 12.2 °F -3.7 °F -0.4 °F 57% 30.10 in 10.0 mi West 15.0 mph 19.6 mph N/A   Clear
10:55 AM 14.0 °F -1.4 °F 1.4 °F 57% 30.10 in 10.0 mi West 15.0 mph 21.9 mph N/A   Clear
11:15 AM 14.0 °F -2.5 °F 1.4 °F 57% 30.10 in 10.0 mi West 17.3 mph 25.3 mph N/A   Clear
11:35 AM 15.8 °F 0.9 °F 1.4 °F 53% 30.10 in 10.0 mi WNW 15.0 mph 23.0 mph N/A   Clear
11:55 AM 17.6 °F 3.7 °F 1.4 °F 49% 30.10 in 10.0 mi WNW 13.8 mph 21.9 mph N/A   Clear
12:15 PM 17.6 °F 4.3 °F 1.4 °F 49% 30.09 in 10.0 mi WNW 12.7 mph 21.9 mph N/A   Clear
12:35 PM 19.4 °F 6.0 °F 1.4 °F 46% 30.09 in 10.0 mi WNW 13.8 mph 19.6 mph N/A   Clear
12:55 PM 19.4 °F 5.5 °F 1.4 °F 46% 30.08 in 10.0 mi WNW 15.0 mph 23.0 mph N/A   Clear
1:15 PM 17.6 °F 4.3 °F 1.4 °F 49% 30.08 in 10.0 mi WNW 12.7 mph 20.7 mph N/A   Scattered Clouds
1:35 PM 19.4 °F 7.9 °F 1.4 °F 46% 30.08 in 10.0 mi WNW 10.4 mph 20.7 mph N/A   Scattered Clouds
1:55 PM 21.2 °F 6.8 °F 3.2 °F 46% 30.07 in 10.0 mi WNW 17.3 mph 20.7 mph N/A   Scattered Clouds
2:15 PM 19.4 °F 6.0 °F 1.4 °F 46% 30.07 in 10.0 mi West 13.8 mph 20.7 mph N/A   Scattered Clouds
2:35 PM 21.2 °F 9.5 °F 1.4 °F 42% 30.06 in 10.0 mi NW 11.5 mph 21.9 mph N/A   Scattered Clouds
2:55 PM 19.4 °F 4.5 °F 1.4 °F 46% 30.05 in 10.0 mi WNW 17.3 mph - N/A   Scattered Clouds
3:15 PM 21.2 °F 10.1 °F 1.4 °F 42% 30.05 in 10.0 mi NW 10.4 mph 19.6 mph N/A   Scattered Clouds
3:35 PM 23.0 °F 12.4 °F 3.2 °F 43% 30.06 in 10.0 mi NW 10.4 mph 20.7 mph N/A   Scattered Clouds
3:55 PM 21.2 °F 8.3 °F 3.2 °F 46% 30.05 in 10.0 mi NW 13.8 mph 20.7 mph N/A   Scattered Clouds
4:15 PM 21.2 °F 8.9 °F 3.2 °F 46% 30.06 in 10.0 mi NW 12.7 mph 19.6 mph N/A   Mostly Cloudy
4:35 PM 21.2 °F 8.9 °F 3.2 °F 46% 30.06 in 10.0 mi NW 12.7 mph - N/A   Scattered Clouds
4:55 PM 21.2 °F 9.5 °F 3.2 °F 46% 30.06 in 10.0 mi NW 11.5 mph 24.2 mph N/A   Scattered Clouds
5:15 PM 21.2 °F 8.3 °F 3.2 °F 46% 30.06 in 10.0 mi NW 13.8 mph 20.7 mph N/A   Scattered Clouds
5:35 PM 21.2 °F 8.9 °F 3.2 °F 46% 30.07 in 10.0 mi NW 12.7 mph 18.4 mph N/A   Mostly Cloudy
5:55 PM 19.4 °F 7.2 °F 3.2 °F 49% 30.07 in 10.0 mi North 11.5 mph - N/A   Mostly Cloudy
6:15 PM 17.6 °F 6.4 °F 3.2 °F 53% 30.08 in 10.0 mi NNW 9.2 mph - N/A   Scattered Clouds
6:35 PM 17.6 °F 5.7 °F 3.2 °F 53% 30.08 in 10.0 mi NNW 10.4 mph - N/A   Scattered Clouds
6:55 PM 17.6 °F 8.2 °F 3.2 °F 53% 30.09 in 10.0 mi NNW 6.9 mph - N/A   Scattered Clouds
7:15 PM 17.6 °F 8.2 °F 3.2 °F 53% 30.09 in 10.0 mi NNW 6.9 mph - N/A   Scattered Clouds
7:35 PM 15.8 °F 7.2 °F 3.2 °F 58% 30.09 in 10.0 mi NNW 5.8 mph - N/A   Clear
7:55 PM 15.8 °F 10.2 °F 3.2 °F 58% 30.09 in 10.0 mi WNW 3.5 mph - N/A   Clear
8:15 PM 12.2 °F - 1.4 °F 62% 30.09 in 10.0 mi Calm Calm - N/A   Clear
8:35 PM 8.6 °F - 1.4 °F 73% 30.09 in 10.0 mi Calm Calm - N/A   Clear
8:55 PM 6.8 °F - 1.4 °F 79% 30.09 in 10.0 mi Calm Calm - N/A   Clear
9:15 PM 6.8 °F - 1.4 °F 79% 30.09 in 10.0 mi Calm Calm - N/A   Clear
9:35 PM 5.0 °F - -0.4 °F 78% 30.09 in 10.0 mi Calm Calm - N/A   Clear
9:55 PM 3.2 °F - -0.4 °F 85% 30.09 in 10.0 mi Calm Calm - N/A   Clear
10:15 PM 3.2 °F - -0.4 °F 85% 30.09 in 10.0 mi Calm Calm - N/A   Clear
10:35 PM 1.4 °F - -2.2 °F 85% 30.10 in 10.0 mi Calm Calm - N/A   Clear
10:55 PM 1.4 °F - -2.2 °F 85% 30.10 in 10.0 mi Calm Calm - N/A   Clear
11:15 PM -0.4 °F - -4.0 °F 85% 30.09 in 10.0 mi Calm Calm - N/A   Clear
11:35 PM -0.4 °F - -4.0 °F 85% 30.10 in 10.0 mi Calm Calm - N/A   Clear
11:55 PM -0.4 °F - -4.0 °F 85% 30.10 in 10.0 mi Calm Calm - N/A   Clear